User: anonymous   Login
Location: Namasale
(1.5000°N, 32.6167°E)
Time: 19:37:25
(UTC+00:00)
Language:

Transit 2A Rocket - Orbit

View from above orbital plane
View from above orbital plane
View from above satellite
View from above satellite

Ground track
Ground track

The orbit data is extracted from the following two-line orbital elements,

1 00047U 60007C   21107.25688180 -.00000006  00000-0  23812-4 0  9990
2 00047  66.6665  62.6417 0219950  80.6373 281.9525 14.42143332178484
Epoch (UTC): 17 April 2021 06:09:54
Eccentricity: 0.0219950
inclination: 66.6665°
perigee height: 594 km
apogee height: 908 km
right ascension of ascending node: 62.6417°
argument of perigee: 80.6373°
revolutions per day: 14.42143332
mean anomaly at epoch: 281.9525°
orbit number at epoch: 17848

The dashed part of the orbit path shows where the satellite is in the earth's shadow,  

DLR